This is the latest recevied weather packets stored in our database for station/object K7OWW-2. If no packets are shown the sender has not sent any weather packets the latest 10 day(s).
| Time | Temp. | Humidity | Pressure | Rain* | Wind** | Luminosity | Snow |
|---|---|---|---|---|---|---|---|
| 1787881444 | 21.67° C | 39% | 1012.7 hPa | 0 mm | - | - | - |
| 1787881142 | 22.22° C | 39% | 1012.8 hPa | 0 mm | - | - | - |
| 1787880541 | 22.78° C | 38% | 1012.7 hPa | 0 mm | - | - | - |
| 1787879942 | 23.33° C | 37% | 1012.6 hPa | 0 mm | - | - | - |
| 1787879644 | 23.89° C | 36% | 1012.6 hPa | 0 mm | - | - | - |
| 1787879342 | 24.44° C | 35% | 1012.5 hPa | 0 mm | - | - | - |
| 1787878742 | 24.44° C | 34% | 1012.5 hPa | 0 mm | - | - | - |
| 1787878142 | 24.44° C | 33% | 1012.5 hPa | 0 mm | - | - | - |
| 1787877844 | 24.44° C | 33% | 1012.5 hPa | 0 mm | - | - | - |
| 1787877542 | 24.44° C | 33% | 1012.5 hPa | 0 mm | - | - | - |
| 1787876942 | 25° C | 33% | 1012.4 hPa | 0 mm | - | - | - |
| 1787876342 | 25.56° C | 31% | 1012.4 hPa | 0 mm | - | - | - |
| 1787876044 | 25.56° C | 32% | 1012.5 hPa | 0 mm | - | - | - |
| 1787875742 | 25.56° C | 32% | 1012.5 hPa | 0 mm | - | - | - |
| 1787875142 | 25.56° C | 32% | 1012.5 hPa | 0 mm | - | - | - |
| 1787874542 | 25° C | 33% | 1012.5 hPa | 0 mm | - | - | - |
| 1787874244 | 25° C | 33% | 1012.6 hPa | 0 mm | - | - | - |
| 1787873949 | 25.56° C | 32% | 1012.7 hPa | 0 mm | - | - | - |
| 1787873342 | 25.56° C | 32% | 1012.7 hPa | 0 mm | - | - | - |
| 1787872742 | 25.56° C | 32% | 1012.7 hPa | 0 mm | - | - | - |
| 1787872444 | 25.56° C | 32% | 1012.8 hPa | 0 mm | - | - | - |
| 1787872142 | 26.11° C | 30% | 1012.8 hPa | 0 mm | - | - | - |
| 1787871542 | 26.11° C | 32% | 1012.8 hPa | 0 mm | - | - | - |
| 1787870942 | 26.11° C | 29% | 1012.9 hPa | 0 mm | - | - | - |
| 1787870644 | 26.11° C | 31% | 1012.9 hPa | 0 mm | - | - | - |
* Rain latest hour (hover to see other rain measurements)
** Current wind speed in m/s (hover to see current wind gust speed)